Location: Zagreb
(45.8150°N, 15.9819°E)
Time: 19:25:02
(UTC+01:00)

STARLINK-1652 - Pass Details

Date: 21 September 2020
Orbit: 548 x 551 km, 53.0° (Epoch: 27 October)

Event Time Altitude Azimuth Distance (km) Brightness Sun altitude
Exits shadow 04:55:32 21° 314° (NW) 1,244 5.2 -18.9°
Maximum altitude 04:57:19 30° 356° (N) 1,002 5.1 -18.6°
Drops below altitude 10° 05:00:57 10° 58° (ENE) 1,809 7.5 -18.1°
Sets 05:03:24 0° 70° (ENE) 2,701 8.9 -17.7°
